QPF
0.00 0.00 0.00 0.00 0.00 0.00 0.00 0.00 0.00 0.00 0.00 0.00 0.00 0.00 0.00 0.00 0.01 0.02 0.00 0.00 0.00 0.00 0.01 0.01 0.01 0.01 0.01 0.01 0.02 0.01 0.01 0.03 0.04 0.03 0.02 0.03 0.03 0.04 0.04 0.03 0.04 0.03 0.03 0.03 0.03 0.05 0.04 0.03 0.03
0.00 0.00 0.00 0.00 0.00 0.00 0.00 0.00 0.00 0.00 0.00 0.00 0.00 0.00 0.00 0.00 0.00 0.00 0.00 0.00 0.00 0.00 0.00 0.00 0.01 0.01 0.01 0.01 0.01 0.02 0.02 0.02 0.03 0.03 0.02 0.03 0.04 0.04 0.04 0.03 0.03 0.02 0.03 0.03 0.04 0.04 0.03 0.03 0.03
0.00 0.00 0.00 0.00 0.00 0.00 0.00 0.00 0.00 0.00 0.00 0.00 0.00 0.00 0.00 0.00 0.00 0.00 0.00 0.00 0.00 0.00 0.00 0.00 0.00 0.00 0.01 0.01 0.01 0.02 0.01 0.02 0.03 0.03 0.02 0.03 0.04 0.04 0.03 0.02 0.02 0.02 0.03 0.03 0.04 0.03 0.02 0.03 0.03
0.00 0.00 0.00 0.00 0.00 0.00 0.00 0.00 0.00 0.00 0.00 0.00 0.00 0.00 0.00 0.00 0.00 0.00 0.00 0.00 0.00 0.00 0.00 0.00 0.00 0.00 0.00 0.00 0.01 0.01 0.01 0.01 0.02 0.03 0.03 0.04 0.04 0.03 0.02 0.02 0.02 0.02 0.02 0.03 0.03 0.02 0.03 0.04 0.04
0.00 0.00 0.00 0.00 0.00 0.00 0.00 0.00 0.00 0.01 0.00 0.00 0.00 0.00 0.00 0.00 0.00 0.00 0.00 0.00 0.00 0.00 0.00 0.00 0.00 0.00 0.00 0.00 0.01 0.01 0.01 0.01 0.01 0.02 0.03 0.05 0.05 0.03 0.03 0.03 0.03 0.02 0.02 0.03 0.03 0.02 0.03 0.03 0.03
0.00 0.00 0.00 0.00 0.00 0.00 0.00 0.00 0.00 0.01 0.01 0.00 0.00 0.00 0.00 0.00 0.00 0.00 0.00 0.00 0.00 0.00 0.00 0.00 0.00 0.00 0.00 0.00 0.00 0.01 0.01 0.01 0.01 0.02 0.03 0.06 0.06 0.05 0.06 0.04 0.03 0.02 0.03 0.03 0.02 0.02 0.04 0.04 0.03
0.00 0.00 0.00 0.00 0.00 0.00 0.00 0.00 0.00 0.00 0.00 0.00 0.00 0.00 0.00 0.00 0.00 0.00 0.00 0.00 0.00 0.00 0.00 0.00 0.00 0.00 0.01 0.01 0.01 0.01 0.01 0.01 0.01 0.01 0.03 0.08 0.11 0.10 0.09 0.06 0.03 0.03 0.03 0.03 0.02 0.02 0.03 0.03 0.03
0.00 0.00 0.00 0.00 0.00 0.00 0.00 0.00 0.00 0.00 0.00 0.00 0.00 0.00 0.00 0.00 0.00 0.00 0.00 0.01 0.01 0.01 0.00 0.01 0.01 0.01 0.01 0.01 0.01 0.01 0.01 0.01 0.01 0.01 0.03 0.08 0.09 0.08 0.07 0.05 0.04 0.04 0.04 0.04 0.04 0.03 0.04 0.03 0.03
0.00 0.00 0.00 0.00 0.00 0.00 0.00 0.00 0.00 0.00 0.00 0.00 0.00 0.00 0.00 0.00 0.00 0.00 0.01 0.01 0.01 0.01 0.01 0.01 0.01 0.01 0.01 0.01 0.01 0.02 0.02 0.02 0.02 0.02 0.03 0.04 0.06 0.05 0.04 0.04 0.04 0.03 0.03 0.04 0.05 0.05 0.04 0.03 0.04
0.00 0.00 0.00 0.00 0.00 0.00 0.00 0.00 0.00 0.00 0.00 0.00 0.00 0.00 0.00 0.00 0.00 0.00 0.00 0.00 0.01 0.01 0.02 0.02 0.01 0.01 0.01 0.01 0.02 0.04 0.03 0.03 0.02 0.03 0.03 0.03 0.04 0.04 0.03 0.03 0.03 0.03 0.03 0.04 0.06 0.05 0.03 0.03 0.04
0.00 0.00 0.00 0.00 0.00 0.00 0.00 0.00 0.00 0.00 0.00 0.00 0.00 0.00 0.00 0.00 0.00 0.00 0.00 0.00 0.00 0.02 0.03 0.03 0.03 0.02 0.02 0.01 0.02 0.03 0.03 0.03 0.03 0.02 0.02 0.02 0.01 0.02 0.02 0.03 0.03 0.02 0.03 0.03 0.03 0.03 0.03 0.03 0.05
0.00 0.00 0.00 0.00 0.00 0.00 0.00 0.00 0.00 0.00 0.00 0.00 0.00 0.00 0.00 0.00 0.00 0.00 0.00 0.00 0.01 0.02 0.03 0.04 0.04 0.03 0.03 0.02 0.02 0.02 0.02 0.02 0.01 0.02 0.02 0.01 0.01 0.01 0.02 0.03 0.02 0.01 0.02 0.04 0.02 0.03 0.03 0.03 0.02
0.00 0.00 0.00 0.00 0.00 0.00 0.00 0.00 0.00 0.00 0.00 0.00 0.00 0.00 0.00 0.00 0.00 0.00 0.00 0.01 0.02 0.04 0.05 0.05 0.05 0.03 0.02 0.02 0.01 0.01 0.01 0.02 0.02 0.02 0.01 0.01 0.01 0.01 0.01 0.01 0.01 0.01 0.01 0.02 0.02 0.02 0.04 0.04 0.03
0.00 0.00 0.00 0.00 0.00 0.00 0.00 0.00 0.00 0.00 0.00 0.00 0.00 0.00 0.00 0.00 0.00 0.01 0.01 0.01 0.03 0.04 0.06 0.05 0.05 0.05 0.03 0.02 0.01 0.01 0.01 0.02 0.02 0.03 0.02 0.01 0.01 0.01 0.01 0.01 0.01 0.01 0.01 0.02 0.02 0.02 0.05 0.05 0.04
0.00 0.00 0.00 0.00 0.00 0.00 0.00 0.00 0.00 0.00 0.00 0.00 0.00 0.00 0.00 0.00 0.00 0.01 0.02 0.04 0.03 0.02 0.04 0.04 0.06 0.09 0.06 0.03 0.01 0.01 0.01 0.01 0.01 0.02 0.03 0.03 0.02 0.02 0.02 0.02 0.02 0.02 0.02 0.02 0.03 0.03 0.05 0.04 0.03
0.00 0.00 0.00 0.00 0.00 0.00 0.00 0.00 0.00 0.00 0.00 0.00 0.00 0.00 0.00 0.00 0.01 0.04 0.06 0.08 0.06 0.04 0.03 0.02 0.03 0.07 0.08 0.04 0.02 0.01 0.01 0.01 0.01 0.01 0.02 0.04 0.03 0.04 0.04 0.04 0.03 0.03 0.03 0.03 0.04 0.04 0.05 0.05 0.06
0.00 0.00 0.00 0.00 0.00 0.00 0.00 0.00 0.00 0.00 0.00 0.00 0.00 0.00 0.00 0.01 0.03 0.05 0.08 0.08 0.07 0.06 0.04 0.02 0.01 0.04 0.06 0.04 0.02 0.02 0.02 0.02 0.01 0.02 0.02 0.03 0.03 0.03 0.04 0.06 0.05 0.03 0.03 0.04 0.03 0.03 0.05 0.07 0.10
0.00 0.00 0.00 0.00 0.00 0.00 0.00 0.00 0.00 0.00 0.00 0.00 0.00 0.00 0.00 0.01 0.02 0.03 0.05 0.08 0.06 0.07 0.05 0.03 0.02 0.02 0.03 0.03 0.03 0.03 0.04 0.03 0.02 0.03 0.04 0.05 0.05 0.04 0.06 0.06 0.05 0.03 0.04 0.06 0.07 0.07 0.06 0.07 0.10
0.00 0.00 0.00 0.00 0.00 0.00 0.00 0.00 0.00 0.00 0.00 0.00 0.00 0.00 0.00 0.00 0.01 0.02 0.03 0.05 0.06 0.07 0.05 0.02 0.02 0.02 0.02 0.03 0.02 0.03 0.04 0.05 0.03 0.03 0.05 0.06 0.06 0.06 0.08 0.07 0.07 0.05 0.07 0.07 0.07 0.08 0.08 0.07 0.08
0.00 0.00 0.00 0.00 0.00 0.00 0.00 0.00 0.00 0.00 0.00 0.00 0.00 0.00 0.00 0.00 0.00 0.01 0.01 0.02 0.04 0.05 0.04 0.03 0.03 0.03 0.02 0.02 0.03 0.03 0.05 0.06 0.06 0.07 0.07 0.07 0.07 0.06 0.06 0.07 0.07 0.07 0.08 0.08 0.07 0.08 0.09 0.08 0.07
0.00 0.00 0.00 0.00 0.00 0.00 0.00 0.00 0.00 0.00 0.00 0.00 0.00 0.00 0.00 0.00 0.00 0.01 0.01 0.02 0.03 0.03 0.04 0.03 0.03 0.03 0.03 0.03 0.04 0.05 0.06 0.06 0.08 0.08 0.09 0.08 0.08 0.07 0.07 0.06 0.07 0.08 0.07 0.08 0.09 0.08 0.08 0.09 0.07
0.00 0.00 0.00 0.00 0.00 0.00 0.00 0.00 0.00 0.00 0.00 0.00 0.00 0.00 0.00 0.00 0.00 0.00 0.01 0.02 0.02 0.03 0.04 0.04 0.03 0.04 0.04 0.04 0.05 0.06 0.08 0.08 0.08 0.08 0.10 0.11 0.11 0.09 0.08 0.08 0.09 0.08 0.06 0.07 0.06 0.06 0.07 0.09 0.09
0.00 0.00 0.00 0.00 0.00 0.00 0.00 0.00 0.00 0.00 0.00 0.00 0.00 0.00 0.00 0.00 0.00 0.00 0.02 0.05 0.04 0.04 0.04 0.04 0.04 0.04 0.07 0.08 0.09 0.11 0.09 0.09 0.12 0.13 0.13 0.14 0.11 0.08 0.08 0.09 0.09 0.08 0.06 0.07 0.07 0.06 0.08 0.07 0.07
0.00 0.00 0.00 0.00 0.00 0.00 0.00 0.00 0.00 0.00 0.00 0.00 0.00 0.00 0.00 0.00 0.00 0.00 0.01 0.05 0.07 0.05 0.04 0.04 0.04 0.04 0.05 0.09 0.10 0.11 0.12 0.14 0.16 0.20 0.16 0.16 0.15 0.11 0.09 0.08 0.08 0.09 0.08 0.08 0.08 0.08 0.08 0.08 0.07
0.00 0.00 0.00 0.00 0.00 0.00 0.00 0.00 0.00 0.00 0.00 0.00 0.00 0.00 0.00 0.00 0.00 0.00 0.01 0.01 0.03 0.04 0.05 0.04 0.04 0.03 0.04 0.06 0.07 0.10 0.13 0.15 0.15 0.18 0.20 0.20 0.17 0.13 0.09 0.08 0.09 0.10 0.09 0.09 0.09 0.09 0.08 0.07 0.07
0.00 0.00 0.00 0.00 0.00 0.00 0.00 0.00 0.00 0.00 0.00 0.00 0.00 0.00 0.00 0.00 0.00 0.01 0.01 0.01 0.01 0.02 0.04 0.06 0.06 0.05 0.06 0.08 0.09 0.13 0.16 0.15 0.13 0.15 0.16 0.16 0.13 0.11 0.11 0.10 0.09 0.09 0.09 0.08 0.08 0.07 0.06 0.06 0.05
0.00 0.00 0.00 0.00 0.00 0.00 0.00 0.00 0.00 0.00 0.00 0.00 0.00 0.00 0.01 0.01 0.01 0.01 0.01 0.01 0.01 0.01 0.03 0.04 0.07 0.07 0.07 0.07 0.08 0.10 0.13 0.13 0.14 0.16 0.17 0.14 0.12 0.12 0.12 0.09 0.08 0.07 0.08 0.07 0.07 0.06 0.05 0.05 0.05
0.00 0.00 0.00 0.00 0.00 0.00 0.00 0.00 0.00 0.00 0.00 0.00 0.01 0.01 0.01 0.01 0.01 0.01 0.01 0.01 0.01 0.01 0.02 0.03 0.05 0.06 0.07 0.06 0.07 0.07 0.10 0.13 0.13 0.14 0.15 0.14 0.12 0.11 0.10 0.08 0.07 0.07 0.08 0.08 0.09 0.07 0.06 0.05 0.05
0.00 0.00 0.00 0.00 0.00 0.00 0.00 0.00 0.00 0.00 0.00 0.00 0.01 0.01 0.01 0.01 0.01 0.01 0.01 0.02 0.01 0.01 0.01 0.02 0.04 0.05 0.05 0.07 0.08 0.10 0.09 0.12 0.12 0.10 0.13 0.13 0.09 0.09 0.08 0.08 0.06 0.06 0.06 0.08 0.10 0.10 0.07 0.05 0.05
0.00 0.00 0.00 0.00 0.00 0.00 0.00 0.01 0.00 0.00 0.00 0.00 0.00 0.00 0.00 0.01 0.01 0.01 0.01 0.02 0.01 0.01 0.01 0.01 0.02 0.05 0.06 0.08 0.09 0.13 0.10 0.09 0.11 0.09 0.09 0.09 0.08 0.07 0.07 0.07 0.06 0.04 0.05 0.07 0.07 0.08 0.07 0.07 0.06
MSLP
1008.27 1008.63 1009.07 1009.49 1009.79 1009.94 1009.92 1009.76 1009.55 1009.36 1009.25 1009.27 1009.41 1009.62 1009.86 1010.05 1010.15 1010.18 1010.16 1010.17 1010.28 1010.54 1010.98 1011.56 1012.23 1012.89 1013.44 1013.84 1014.06 1014.11 1014.07 1014.02 1014.02 1014.12 1014.34 1014.63 1014.95 1015.23 1015.41 1015.49 1015.47 1015.42 1015.37 1015.40 1015.50 1015.70 1015.93 1016.16 1016.34
1008.40 1008.86 1009.36 1009.78 1010.05 1010.12 1009.99 1009.71 1009.38 1009.07 1008.87 1008.82 1008.92 1009.11 1009.34 1009.54 1009.67 1009.73 1009.77 1009.84 1010.02 1010.37 1010.89 1011.57 1012.33 1013.07 1013.70 1014.15 1014.40 1014.47 1014.44 1014.37 1014.36 1014.44 1014.63 1014.90 1015.19 1015.44 1015.62 1015.69 1015.68 1015.65 1015.64 1015.70 1015.86 1016.09 1016.36 1016.60 1016.77
1008.61 1009.13 1009.64 1010.04 1010.24 1010.21 1009.98 1009.60 1009.17 1008.79 1008.55 1008.47 1008.56 1008.76 1009.02 1009.25 1009.42 1009.52 1009.60 1009.71 1009.94 1010.33 1010.90 1011.62 1012.43 1013.22 1013.90 1014.39 1014.69 1014.80 1014.79 1014.74 1014.73 1014.80 1014.97 1015.21 1015.47 1015.69 1015.85 1015.92 1015.93 1015.92 1015.95 1016.06 1016.26 1016.53 1016.82 1017.08 1017.24
1008.87 1009.40 1009.89 1010.22 1010.33 1010.21 1009.88 1009.43 1008.94 1008.53 1008.29 1008.23 1008.36 1008.61 1008.91 1009.20 1009.41 1009.55 1009.65 1009.79 1010.03 1010.43 1011.00 1011.73 1012.54 1013.34 1014.04 1014.57 1014.90 1015.06 1015.09 1015.08 1015.09 1015.17 1015.33 1015.54 1015.77 1015.98 1016.12 1016.19 1016.22 1016.25 1016.32 1016.47 1016.71 1017.00 1017.30 1017.55 1017.69
1009.12 1009.63 1010.05 1010.29 1010.31 1010.09 1009.69 1009.19 1008.69 1008.30 1008.10 1008.10 1008.29 1008.62 1008.98 1009.32 1009.58 1009.76 1009.89 1010.03 1010.27 1010.64 1011.19 1011.88 1012.66 1013.43 1014.12 1014.66 1015.02 1015.22 1015.30 1015.34 1015.39 1015.49 1015.65 1015.87 1016.09 1016.28 1016.41 1016.50 1016.55 1016.61 1016.72 1016.90 1017.16 1017.45 1017.74 1017.97 1018.08
1009.34 1009.78 1010.10 1010.24 1010.15 1009.86 1009.41 1008.90 1008.42 1008.09 1007.95 1008.04 1008.31 1008.71 1009.14 1009.54 1009.85 1010.06 1010.21 1010.36 1010.57 1010.92 1011.41 1012.04 1012.76 1013.49 1014.14 1014.67 1015.04 1015.28 1015.41 1015.50 1015.59 1015.73 1015.92 1016.14 1016.37 1016.56 1016.71 1016.81 1016.88 1016.97 1017.11 1017.31 1017.56 1017.84 1018.10 1018.28 1018.36
1009.51 1009.86 1010.06 1010.08 1009.90 1009.54 1009.07 1008.57 1008.15 1007.88 1007.83 1008.00 1008.35 1008.81 1009.31 1009.76 1010.11 1010.35 1010.52 1010.67 1010.88 1011.19 1011.63 1012.20 1012.84 1013.50 1014.11 1014.61 1014.98 1015.24 1015.41 1015.55 1015.70 1015.88 1016.10 1016.35 1016.59 1016.80 1016.97 1017.08 1017.18 1017.29 1017.44 1017.63 1017.87 1018.11 1018.32 1018.46 1018.50
1009.64 1009.87 1009.95 1009.86 1009.59 1009.19 1008.71 1008.24 1007.87 1007.68 1007.70 1007.94 1008.35 1008.86 1009.40 1009.88 1010.27 1010.55 1010.75 1010.92 1011.13 1011.42 1011.82 1012.33 1012.91 1013.50 1014.05 1014.51 1014.87 1015.14 1015.34 1015.52 1015.71 1015.94 1016.20 1016.47 1016.74 1016.97 1017.15 1017.29 1017.41 1017.53 1017.67 1017.85 1018.05 1018.25 1018.42 1018.50 1018.51
1009.72 1009.84 1009.81 1009.61 1009.27 1008.84 1008.36 1007.93 1007.62 1007.49 1007.57 1007.85 1008.29 1008.82 1009.38 1009.89 1010.30 1010.62 1010.86 1011.07 1011.30 1011.60 1011.98 1012.45 1012.97 1013.50 1013.99 1014.41 1014.75 1015.01 1015.23 1015.44 1015.66 1015.93 1016.22 1016.53 1016.82 1017.07 1017.27 1017.43 1017.55 1017.67 1017.81 1017.96 1018.13 1018.29 1018.40 1018.46 1018.44
1009.77 1009.79 1009.66 1009.38 1008.99 1008.53 1008.07 1007.67 1007.40 1007.31 1007.42 1007.72 1008.16 1008.70 1009.25 1009.77 1010.22 1010.58 1010.87 1011.13 1011.40 1011.72 1012.11 1012.56 1013.04 1013.52 1013.97 1014.34 1014.65 1014.90 1015.12 1015.35 1015.60 1015.88 1016.20 1016.53 1016.84 1017.11 1017.32 1017.49 1017.62 1017.74 1017.86 1017.99 1018.12 1018.25 1018.33 1018.37 1018.35
1009.78 1009.73 1009.52 1009.18 1008.76 1008.29 1007.84 1007.47 1007.22 1007.15 1007.27 1007.56 1007.99 1008.50 1009.05 1009.57 1010.04 1010.45 1010.80 1011.13 1011.46 1011.82 1012.23 1012.68 1013.14 1013.59 1013.99 1014.33 1014.60 1014.84 1015.05 1015.28 1015.54 1015.84 1016.17 1016.51 1016.83 1017.12 1017.34 1017.52 1017.65 1017.76 1017.86 1017.97 1018.08 1018.19 1018.26 1018.30 1018.30
1009.76 1009.65 1009.39 1009.03 1008.59 1008.12 1007.69 1007.33 1007.09 1007.02 1007.12 1007.39 1007.78 1008.27 1008.80 1009.33 1009.83 1010.29 1010.70 1011.09 1011.49 1011.91 1012.35 1012.80 1013.26 1013.68 1014.05 1014.36 1014.61 1014.82 1015.03 1015.25 1015.51 1015.81 1016.15 1016.50 1016.83 1017.12 1017.36 1017.53 1017.66 1017.77 1017.86 1017.96 1018.06 1018.16 1018.24 1018.30 1018.33
1009.69 1009.55 1009.28 1008.90 1008.47 1008.01 1007.58 1007.23 1007.00 1006.91 1006.98 1007.21 1007.57 1008.03 1008.55 1009.09 1009.61 1010.12 1010.59 1011.05 1011.51 1011.97 1012.45 1012.92 1013.37 1013.77 1014.12 1014.41 1014.64 1014.84 1015.03 1015.24 1015.50 1015.81 1016.15 1016.50 1016.84 1017.14 1017.39 1017.57 1017.70 1017.80 1017.89 1017.98 1018.08 1018.19 1018.29 1018.37 1018.44
1009.59 1009.44 1009.17 1008.80 1008.38 1007.94 1007.52 1007.17 1006.92 1006.81 1006.85 1007.04 1007.36 1007.80 1008.30 1008.85 1009.40 1009.95 1010.48 1010.99 1011.50 1012.00 1012.50 1012.98 1013.43 1013.82 1014.16 1014.44 1014.66 1014.84 1015.03 1015.24 1015.49 1015.80 1016.14 1016.50 1016.86 1017.17 1017.43 1017.63 1017.77 1017.87 1017.96 1018.05 1018.15 1018.27 1018.39 1018.51 1018.62
1009.46 1009.32 1009.06 1008.72 1008.32 1007.90 1007.49 1007.13 1006.87 1006.72 1006.72 1006.87 1007.16 1007.57 1008.07 1008.62 1009.20 1009.77 1010.34 1010.89 1011.42 1011.94 1012.45 1012.94 1013.39 1013.79 1014.12 1014.40 1014.62 1014.81 1014.99 1015.20 1015.45 1015.76 1016.11 1016.48 1016.85 1017.19 1017.47 1017.68 1017.84 1017.96 1018.05 1018.15 1018.26 1018.38 1018.53 1018.68 1018.83
1009.33 1009.20 1008.97 1008.66 1008.30 1007.90 1007.50 1007.13 1006.84 1006.65 1006.60 1006.70 1006.96 1007.34 1007.83 1008.38 1008.97 1009.56 1010.15 1010.71 1011.25 1011.78 1012.29 1012.78 1013.23 1013.63 1013.98 1014.26 1014.50 1014.70 1014.89 1015.10 1015.35 1015.66 1016.01 1016.40 1016.79 1017.15 1017.46 1017.71 1017.90 1018.03 1018.14 1018.24 1018.36 1018.49 1018.65 1018.82 1019.00
1009.21 1009.11 1008.92 1008.66 1008.34 1007.97 1007.57 1007.19 1006.86 1006.62 1006.51 1006.56 1006.76 1007.11 1007.57 1008.12 1008.70 1009.29 1009.87 1010.43 1010.97 1011.49 1011.99 1012.48 1012.94 1013.35 1013.72 1014.03 1014.29 1014.51 1014.71 1014.93 1015.18 1015.48 1015.84 1016.23 1016.64 1017.03 1017.37 1017.66 1017.88 1018.05 1018.18 1018.29 1018.41 1018.56 1018.73 1018.91 1019.10
1009.11 1009.05 1008.92 1008.72 1008.45 1008.12 1007.73 1007.32 1006.94 1006.64 1006.46 1006.44 1006.58 1006.87 1007.30 1007.81 1008.38 1008.95 1009.51 1010.06 1010.57 1011.08 1011.57 1012.06 1012.53 1012.97 1013.37 1013.71 1014.00 1014.25 1014.47 1014.68 1014.93 1015.22 1015.57 1015.96 1016.38 1016.79 1017.18 1017.51 1017.77 1017.98 1018.14 1018.27 1018.41 1018.55 1018.73 1018.92 1019.13
1009.03 1009.03 1008.98 1008.86 1008.66 1008.36 1007.98 1007.54 1007.11 1006.72 1006.46 1006.34 1006.40 1006.63 1007.00 1007.47 1008.00 1008.54 1009.08 1009.59 1010.09 1010.57 1011.06 1011.55 1012.04 1012.51 1012.95 1013.34 1013.67 1013.94 1014.17 1014.39 1014.62 1014.89 1015.22 1015.59 1016.01 1016.44 1016.85 1017.22 1017.54 1017.79 1017.99 1018.15 1018.30 1018.47 1018.65 1018.85 1019.07
1008.95 1009.04 1009.09 1009.07 1008.94 1008.69 1008.31 1007.84 1007.34 1006.87 1006.49 1006.27 1006.23 1006.38 1006.68 1007.09 1007.57 1008.08 1008.58 1009.07 1009.54 1010.01 1010.50 1011.00 1011.51 1012.02 1012.50 1012.94 1013.31 1013.61 1013.86 1014.07 1014.27 1014.51 1014.80 1015.14 1015.54 1015.97 1016.41 1016.81 1017.17 1017.47 1017.72 1017.92 1018.10 1018.29 1018.49 1018.71 1018.94
1008.84 1009.04 1009.22 1009.31 1009.27 1009.06 1008.69 1008.18 1007.60 1007.03 1006.54 1006.20 1006.06 1006.11 1006.33 1006.68 1007.12 1007.59 1008.06 1008.52 1008.97 1009.43 1009.91 1010.43 1010.97 1011.52 1012.05 1012.53 1012.94 1013.27 1013.52 1013.72 1013.90 1014.09 1014.33 1014.63 1015.00 1015.41 1015.85 1016.28 1016.68 1017.03 1017.32 1017.58 1017.80 1018.02 1018.24 1018.48 1018.73
1008.68 1009.01 1009.33 1009.54 1009.59 1009.42 1009.05 1008.50 1007.83 1007.15 1006.55 1006.10 1005.85 1005.81 1005.96 1006.26 1006.65 1007.09 1007.54 1007.98 1008.42 1008.87 1009.35 1009.87 1010.43 1011.01 1011.59 1012.11 1012.56 1012.91 1013.18 1013.36 1013.51 1013.66 1013.84 1014.09 1014.41 1014.79 1015.22 1015.66 1016.09 1016.48 1016.82 1017.12 1017.39 1017.64 1017.90 1018.17 1018.45
1008.45 1008.92 1009.37 1009.70 1009.82 1009.69 1009.31 1008.71 1007.97 1007.19 1006.48 1005.93 1005.59 1005.47 1005.56 1005.82 1006.18 1006.61 1007.04 1007.47 1007.90 1008.34 1008.82 1009.34 1009.91 1010.52 1011.11 1011.67 1012.15 1012.53 1012.80 1012.98 1013.10 1013.21 1013.34 1013.53 1013.79 1014.13 1014.54 1014.97 1015.41 1015.83 1016.21 1016.55 1016.87 1017.16 1017.45 1017.75 1018.06
1008.15 1008.76 1009.33 1009.74 1009.91 1009.80 1009.40 1008.76 1007.95 1007.10 1006.30 1005.67 1005.26 1005.10 1005.15 1005.39 1005.74 1006.16 1006.59 1007.01 1007.43 1007.86 1008.32 1008.84 1009.41 1010.02 1010.63 1011.21 1011.71 1012.11 1012.39 1012.57 1012.67 1012.74 1012.83 1012.96 1013.17 1013.46 1013.83 1014.25 1014.68 1015.11 1015.52 1015.89 1016.24 1016.56 1016.89 1017.22 1017.56
1007.81 1008.52 1009.16 1009.63 1009.83 1009.72 1009.30 1008.62 1007.76 1006.85 1006.01 1005.34 1004.90 1004.71 1004.76 1004.99 1005.35 1005.77 1006.20 1006.62 1007.03 1007.44 1007.88 1008.38 1008.93 1009.52 1010.13 1010.72 1011.23 1011.64 1011.94 1012.12 1012.21 1012.26 1012.31 1012.39 1012.55 1012.79 1013.11 1013.50 1013.91 1014.34 1014.75 1015.13 1015.50 1015.85 1016.20 1016.55 1016.92
1007.44 1008.21 1008.89 1009.37 1009.56 1009.44 1008.99 1008.28 1007.40 1006.48 1005.63 1004.95 1004.52 1004.34 1004.41 1004.66 1005.03 1005.46 1005.90 1006.32 1006.71 1007.10 1007.51 1007.97 1008.49 1009.06 1009.65 1010.22 1010.73 1011.14 1011.44 1011.63 1011.72 1011.75 1011.77 1011.82 1011.93 1012.12 1012.39 1012.73 1013.11 1013.51 1013.91 1014.30 1014.68 1015.04 1015.40 1015.78 1016.17
1007.07 1007.83 1008.49 1008.95 1009.12 1008.96 1008.50 1007.78 1006.91 1006.01 1005.20 1004.57 1004.18 1004.04 1004.15 1004.43 1004.83 1005.27 1005.71 1006.12 1006.50 1006.86 1007.24 1007.66 1008.13 1008.65 1009.20 1009.74 1010.23 1010.63 1010.93 1011.11 1011.18 1011.20 1011.20 1011.21 1011.28 1011.42 1011.64 1011.93 1012.27 1012.64 1013.03 1013.40 1013.78 1014.15 1014.53 1014.92 1015.33
1006.69 1007.41 1008.00 1008.39 1008.51 1008.32 1007.85 1007.16 1006.34 1005.51 1004.78 1004.23 1003.91 1003.85 1004.00 1004.32 1004.75 1005.20 1005.64 1006.04 1006.40 1006.73 1007.07 1007.44 1007.87 1008.34 1008.83 1009.32 1009.77 1010.14 1010.41 1010.56 1010.62 1010.61 1010.58 1010.56 1010.58 1010.68 1010.85 1011.09 1011.39 1011.73 1012.09 1012.46 1012.84 1013.22 1013.61 1014.02 1014.46
1006.30 1006.91 1007.41 1007.71 1007.76 1007.55 1007.10 1006.46 1005.73 1005.01 1004.40 1003.96 1003.75 1003.77 1003.98 1004.34 1004.78 1005.24 1005.67 1006.05 1006.39 1006.70 1007.01 1007.34 1007.71 1008.12 1008.56 1008.98 1009.37 1009.68 1009.89 1010.00 1010.01 1009.96 1009.89 1009.82 1009.80 1009.85 1009.98 1010.19 1010.46 1010.77 1011.12 1011.49 1011.87 1012.27 1012.69 1013.13 1013.61
1005.87 1006.34 1006.71 1006.91 1006.91 1006.68 1006.27 1005.72 1005.11 1004.53 1004.06 1003.77 1003.67 1003.77 1004.04 1004.43 1004.88 1005.34 1005.76 1006.12 1006.44 1006.73 1007.01 1007.31 1007.64 1007.99 1008.36 1008.71 1009.02 1009.24 1009.38 1009.41 1009.35 1009.24 1009.11 1008.99 1008.93 1008.94 1009.03 1009.20 1009.45 1009.76 1010.11 1010.49 1010.90 1011.34 1011.80 1012.29 1012.81
Thickness
5832 5838 5839 5833 5825 5820 5810 5815 5822 5819 5821 5827 5827 5821 5814 5807 5800 5788 5806 5814 5810 5805 5797 5789 5786 5784 5783 5781 5780 5779 5777 5776 5775 5773 5772 5771 5770 5770 5769 5768 5767 5766 5765 5764 5763 5762 5760 5759 5757
5840 5839 5834 5832 5821 5808 5806 5820 5819 5822 5826 5829 5826 5821 5814 5807 5809 5806 5809 5810 5808 5804 5797 5791 5785 5783 5782 5780 5778 5777 5776 5774 5772 5771 5770 5769 5768 5768 5767 5766 5765 5764 5763 5762 5761 5760 5758 5757 5755
5841 5839 5832 5830 5818 5812 5810 5822 5823 5827 5832 5828 5821 5820 5812 5805 5805 5807 5811 5810 5807 5803 5797 5789 5784 5782 5780 5778 5776 5775 5774 5772 5771 5770 5769 5767 5766 5766 5765 5764 5763 5762 5761 5760 5759 5757 5756 5755 5753
5838 5835 5832 5825 5815 5820 5823 5827 5829 5826 5826 5828 5823 5813 5811 5811 5811 5812 5811 5810 5805 5801 5797 5787 5782 5780 5778 5777 5775 5773 5772 5770 5769 5768 5767 5766 5765 5764 5763 5762 5761 5760 5759 5758 5757 5755 5754 5753 5751
5838 5832 5822 5817 5818 5824 5831 5834 5834 5827 5823 5824 5823 5810 5803 5810 5816 5814 5810 5808 5804 5802 5796 5787 5781 5778 5776 5775 5773 5772 5770 5768 5767 5766 5765 5764 5762 5762 5761 5760 5759 5757 5756 5755 5754 5753 5752 5751 5749
5830 5829 5817 5815 5816 5824 5832 5836 5834 5829 5825 5824 5821 5811 5801 5810 5811 5809 5809 5807 5805 5802 5796 5785 5779 5777 5775 5773 5771 5770 5768 5767 5766 5764 5763 5762 5761 5759 5758 5757 5756 5755 5754 5753 5752 5751 5750 5749 5747
5825 5823 5820 5820 5817 5820 5829 5838 5833 5829 5823 5825 5827 5811 5801 5805 5809 5809 5806 5805 5804 5801 5795 5787 5781 5776 5773 5771 5769 5768 5767 5765 5764 5762 5761 5760 5759 5757 5756 5755 5754 5753 5752 5751 5750 5749 5748 5747 5746
5831 5825 5819 5821 5818 5820 5832 5836 5837 5833 5827 5834 5831 5814 5803 5805 5809 5807 5803 5801 5799 5797 5793 5788 5783 5779 5775 5772 5768 5766 5764 5763 5762 5761 5760 5758 5757 5755 5754 5753 5752 5751 5750 5749 5748 5747 5747 5745 5744
5827 5815 5816 5822 5821 5824 5834 5831 5835 5842 5833 5829 5831 5828 5824 5814 5809 5802 5796 5793 5792 5791 5790 5788 5784 5779 5776 5774 5768 5765 5763 5761 5760 5760 5758 5757 5759 5757 5754 5752 5749 5749 5748 5747 5746 5746 5745 5744 5743
5818 5812 5821 5830 5833 5832 5832 5832 5833 5831 5825 5821 5821 5821 5820 5812 5805 5798 5793 5789 5787 5785 5786 5786 5783 5779 5777 5774 5768 5767 5765 5762 5762 5760 5759 5758 5757 5756 5755 5749 5748 5747 5746 5745 5745 5745 5744 5745 5745
5818 5816 5825 5829 5835 5835 5832 5833 5837 5829 5822 5826 5821 5816 5813 5809 5803 5798 5795 5793 5789 5786 5784 5784 5780 5778 5776 5773 5770 5768 5766 5762 5762 5759 5758 5757 5756 5755 5753 5751 5748 5747 5746 5747 5744 5746 5748 5748 5747
5814 5819 5823 5828 5834 5832 5830 5832 5832 5832 5832 5839 5836 5825 5815 5809 5804 5801 5796 5793 5790 5786 5783 5782 5778 5775 5774 5773 5770 5767 5766 5763 5762 5758 5757 5757 5757 5755 5754 5751 5751 5749 5748 5747 5748 5747 5746 5746 5746
5809 5816 5822 5827 5830 5832 5831 5830 5829 5832 5841 5840 5835 5824 5816 5813 5808 5804 5800 5796 5791 5785 5782 5780 5776 5773 5771 5769 5768 5768 5765 5764 5761 5758 5756 5756 5756 5754 5752 5750 5749 5750 5748 5747 5746 5746 5744 5744 5743
5814 5816 5820 5825 5827 5828 5824 5828 5828 5832 5841 5834 5826 5820 5817 5814 5809 5804 5799 5794 5791 5786 5782 5779 5775 5772 5769 5767 5765 5765 5764 5761 5761 5758 5755 5753 5754 5753 5751 5748 5747 5748 5747 5747 5746 5745 5743 5743 5743
5814 5808 5813 5820 5823 5825 5823 5816 5824 5836 5837 5829 5824 5820 5817 5814 5809 5805 5801 5796 5792 5788 5784 5778 5774 5771 5767 5766 5764 5764 5762 5760 5759 5757 5753 5751 5751 5750 5749 5749 5747 5746 5745 5743 5743 5743 5742 5742 5742
5804 5799 5799 5814 5820 5822 5814 5808 5828 5838 5833 5826 5823 5820 5815 5812 5809 5806 5802 5796 5792 5787 5782 5777 5775 5770 5766 5764 5762 5763 5761 5759 5757 5755 5753 5750 5749 5747 5747 5747 5746 5744 5743 5743 5742 5742 5742 5741 5741
5791 5791 5798 5806 5817 5818 5813 5812 5826 5835 5830 5824 5822 5819 5814 5810 5808 5806 5802 5797 5791 5786 5781 5776 5774 5770 5766 5763 5760 5760 5758 5757 5756 5754 5752 5750 5748 5746 5746 5745 5744 5742 5743 5742 5743 5742 5741 5739 5738
5789 5795 5797 5799 5810 5810 5809 5814 5823 5829 5828 5825 5822 5819 5814 5809 5807 5805 5801 5796 5790 5785 5780 5775 5772 5769 5765 5762 5759 5758 5756 5755 5754 5753 5751 5749 5747 5745 5744 5743 5742 5742 5742 5740 5740 5738 5737 5737 5737
5797 5795 5793 5799 5808 5804 5805 5810 5818 5824 5822 5821 5821 5818 5814 5811 5810 5806 5800 5795 5789 5783 5778 5774 5771 5768 5764 5761 5758 5756 5754 5753 5752 5752 5750 5747 5746 5744 5743 5744 5741 5741 5740 5739 5738 5736 5735 5735 5736
5785 5784 5788 5792 5800 5800 5801 5805 5816 5819 5818 5820 5819 5816 5815 5811 5807 5803 5800 5796 5790 5784 5780 5776 5772 5770 5766 5763 5760 5758 5756 5753 5752 5751 5748 5747 5745 5743 5743 5742 5741 5740 5738 5737 5736 5735 5734 5735 5735
5777 5781 5784 5783 5790 5798 5795 5794 5805 5813 5816 5818 5819 5818 5817 5812 5806 5802 5799 5796 5792 5786 5782 5778 5774 5771 5767 5764 5760 5756 5752 5750 5749 5747 5747 5746 5744 5742 5742 5741 5741 5739 5738 5737 5735 5735 5733 5732 5734
5768 5784 5784 5780 5777 5783 5788 5781 5799 5808 5808 5811 5813 5815 5815 5814 5811 5805 5801 5797 5794 5789 5784 5778 5774 5770 5766 5763 5759 5756 5752 5749 5749 5747 5747 5745 5744 5742 5741 5740 5739 5739 5739 5738 5736 5737 5736 5733 5732
5775 5783 5779 5779 5777 5779 5783 5779 5796 5804 5799 5806 5811 5813 5814 5813 5812 5807 5803 5799 5795 5790 5784 5779 5773 5768 5765 5762 5758 5754 5753 5751 5750 5747 5744 5743 5742 5741 5741 5740 5739 5738 5739 5738 5738 5737 5735 5735 5734
5776 5772 5771 5774 5776 5759 5777 5776 5783 5799 5798 5805 5809 5810 5811 5811 5810 5807 5804 5799 5794 5790 5784 5779 5772 5767 5765 5762 5758 5754 5752 5750 5747 5744 5742 5741 5741 5741 5741 5740 5739 5738 5739 5738 5737 5736 5735 5735 5735
5767 5758 5746 5744 5747 5757 5780 5773 5783 5799 5804 5804 5804 5807 5808 5808 5805 5803 5799 5795 5791 5787 5782 5777 5771 5766 5763 5760 5757 5754 5751 5748 5746 5745 5743 5741 5740 5740 5740 5740 5739 5739 5738 5738 5737 5736 5736 5734 5733
5762 5765 5755 5745 5748 5763 5766 5768 5787 5799 5801 5802 5802 5803 5803 5802 5801 5798 5796 5793 5789 5785 5780 5775 5770 5765 5762 5759 5756 5753 5750 5748 5748 5746 5745 5742 5742 5743 5742 5740 5739 5738 5738 5738 5737 5738 5736 5735 5733
5759 5765 5783 5770 5768 5763 5768 5773 5783 5793 5793 5794 5794 5795 5795 5796 5796 5794 5792 5790 5786 5782 5778 5775 5769 5765 5761 5758 5755 5751 5750 5748 5748 5746 5745 5744 5743 5743 5742 5741 5739 5739 5738 5738 5737 5738 5736 5735 5734
5774 5772 5766 5760 5746 5746 5759 5764 5775 5781 5784 5788 5789 5788 5789 5790 5790 5790 5788 5785 5782 5780 5777 5773 5769 5764 5761 5757 5754 5753 5751 5749 5748 5746 5745 5744 5743 5742 5741 5740 5739 5738 5737 5737 5736 5736 5736 5734 5733
5758 5761 5765 5765 5767 5757 5749 5763 5790 5787 5787 5786 5787 5788 5786 5785 5785 5784 5783 5781 5778 5776 5774 5769 5765 5761 5758 5756 5753 5752 5751 5749 5748 5746 5744 5743 5742 5741 5740 5739 5738 5737 5736 5736 5735 5736 5735 5733 5732
5766 5766 5763 5752 5750 5762 5765 5767 5789 5788 5787 5785 5784 5784 5785 5783 5783 5781 5778 5775 5772 5770 5768 5765 5762 5759 5756 5754 5752 5750 5749 5749 5747 5746 5745 5743 5741 5741 5740 5738 5737 5736 5735 5735 5735 5734 5734 5733 5731